sat.trackr.live / text

‹ back to catalog

YUNHAI-1 01

NORAD 41857 · 2016-068A

PAYLOAD ACTIVE UNKNOWN

§ Identity

Operator
Country
PRC
Launch date
2016-11-11
Launch site
JSC
Launch vehicle
Mass (kg)
RCS (m²)
4.24

External: N2YO · Heavens-Above · Gunter

§ Orbital elements

Epoch: 2026-09-13T03:59:16.529856Z

Period
100.52 min
Inclination
98.5863°
Eccentricity
0.0003887
Mean motion
14.32513476 rev/d
Perigee alt
780.6 km
Apogee alt
786.1 km
Semi-major
7,161.5 km
B*
1.0947e-4
RAAN
266.3686°
Arg perigee
119.0714°
Mean anomaly
241.0859°
Rev number
51,442

§ Raw data

YUNHAI-1 011 41857U 16068A   26256.16616354  .00000253  00000+0  10947-3 0  99922 41857  98.5863 266.3686 0003887 119.0714 241.0859 14.32513476514423

JSON: /api/v1/satellites/41857 · /tle

For live sub-satellite position, see the globe view (requires WebGL).

§ Visibility from observer

Set your observer location to see the next 7 days of passes ≥ 10°. The values pass through the URL so the page stays shareable.

No JS? Fill the form by hand. The geolocation button needs JavaScript.

§ Radio — SatNOGS DB

ModeDescriptionDownlinkUplink
FM Mode L 1.704 GHz

1 transmitter · refreshed weekly from db.satnogs.org